When you browse on this site, cookies collect data to enhance your experience and personalize the content and advertising you see.
Visit our Privacy Policy to learn more. By continuing to use the site, you agree to this use of cookies and data.
  • Em Portugal
  • Lista de países
  • Para 7 dias
  • Temperatura da água
  • Mapas de satélite
  • Mapa do tempo
  • Widgets de tempo
  • user-avatar
    Iniciar Sessão

    Previsão horária em Ravda

    Hoje, 17 Fevereiro, Domingo

    Tempo Temperatura Precipitação Vento Pressão Humidade
    00:00 +4°C° 0 mm 2 m/s 771 mmHg 75%
    01:00 +4°C° 0 mm 2 m/s 771 mmHg 76%
    02:00 +4°C° 0 mm 2 m/s 771 mmHg 76%
    03:00 +4°C° 0 mm 2 m/s 771 mmHg 75%
    04:00 +3°C° 0 mm 2 m/s 771 mmHg 75%
    05:00 +3°C° 0 mm 2 m/s 771 mmHg 74%
    06:00 +3°C° 0 mm 2 m/s 771 mmHg 74%
    07:00 +4°C° 0 mm 2 m/s 771 mmHg 73%
    08:00 +4°C° 0 mm 2 m/s 771 mmHg 72%
    09:00 +5°C° 0 mm 2 m/s 771 mmHg 65%
    10:00 +7°C° 0 mm 2 m/s 770 mmHg 59%
    11:00 +9°C° 0 mm 2 m/s 770 mmHg 52%
    12:00 +10°C° 0 mm 2 m/s 770 mmHg 49%
    13:00 +12°C° 0 mm 1 m/s 770 mmHg 46%
    14:00 +13°C° 0 mm 1 m/s 769 mmHg 44%
    15:00 +13°C° 0 mm 1 m/s 769 mmHg 47%
    16:00 +13°C° 0 mm 1 m/s 768 mmHg 50%
    17:00 +13°C° 0 mm 1 m/s 768 mmHg 53%
    18:00 +12°C° 0 mm 1 m/s 768 mmHg 56%
    19:00 +11°C° 0 mm 1 m/s 768 mmHg 59%
    20:00 +10°C° 0 mm 1 m/s 768 mmHg 62%
    21:00 +8°C° 0 mm 2 m/s 768 mmHg 63%
    22:00 +8°C° 0 mm 2 m/s 768 mmHg 64%
    23:00 +7°C° 0 mm 2 m/s 768 mmHg 65%

    Amanhã, 18 Fevereiro, Segunda-feira

    Tempo Temperatura Precipitação Vento Pressão Humidade
    00:00 +7°C° 0 mm 2 m/s 768 mmHg 65%
    01:00 +7°C° 0 mm 2 m/s 768 mmHg 65%
    02:00 +7°C° 0 mm 2 m/s 768 mmHg 64%
    03:00 +6°C° 0 mm 2 m/s 768 mmHg 63%
    04:00 +6°C° 0 mm 2 m/s 768 mmHg 63%
    05:00 +6°C° 0 mm 2 m/s 767 mmHg 62%
    06:00 +6°C° 0 mm 2 m/s 768 mmHg 63%
    07:00 +6°C° 0 mm 2 m/s 768 mmHg 64%
    08:00 +6°C° 0 mm 2 m/s 768 mmHg 65%
    09:00 +8°C° 0 mm 2 m/s 768 mmHg 61%
    10:00 +10°C° 0 mm 2 m/s 768 mmHg 57%
    11:00 +12°C° 0 mm 2 m/s 768 mmHg 53%
    12:00 +13°C° 0 mm 2 m/s 768 mmHg 50%
    13:00 +14°C° 0 mm 1 m/s 768 mmHg 47%
    14:00 +15°C° 0 mm 1 m/s 768 mmHg 44%
    15:00 +14°C° 0 mm 2 m/s 768 mmHg 48%
    16:00 +14°C° 0 mm 2 m/s 767 mmHg 53%
    17:00 +13°C° 0 mm 2 m/s 767 mmHg 57%
    18:00 +12°C° 0 mm 2 m/s 768 mmHg 63%
    19:00 +9°C° 0 mm 2 m/s 768 mmHg 70%
    20:00 +8°C° 0 mm 2 m/s 768 mmHg 76%
    21:00 +8°C° 0 mm 2 m/s 768 mmHg 79%
    22:00 +8°C° 0 mm 2 m/s 768 mmHg 81%
    23:00 +8°C° 0 mm 1 m/s 768 mmHg 84%

    Depois de amanhã, 19 Fevereiro, Terça-feira

    Tempo Temperatura Precipitação Vento Pressão Humidade
    00:00 +8°C° 0 mm 1 m/s 768 mmHg 85%
    01:00 +8°C° 0 mm 1 m/s 768 mmHg 87%
    02:00 +8°C° 0 mm 1 m/s 768 mmHg 88%
    03:00 +7°C° 0 mm 1 m/s 768 mmHg 89%
    04:00 +7°C° 0 mm 1 m/s 768 mmHg 89%
    05:00 +7°C° 0 mm 1 m/s 768 mmHg 90%
    06:00 +7°C° 0 mm 1 m/s 768 mmHg 90%
    07:00 +7°C° 0 mm 1 m/s 768 mmHg 90%
    08:00 +8°C° 0 mm 1 m/s 769 mmHg 90%
    09:00 +8°C° 0 mm 2 m/s 769 mmHg 83%
    10:00 +10°C° 0 mm 3 m/s 769 mmHg 76%
    11:00 +11°C° 0 mm 3 m/s 769 mmHg 69%
    12:00 +12°C° 0 mm 3 m/s 769 mmHg 67%
    13:00 +12°C° 0 mm 3 m/s 768 mmHg 64%
    14:00 +13°C° 0 mm 4 m/s 768 mmHg 61%
    15:00 +12°C° 0 mm 4 m/s 768 mmHg 65%
    16:00 +11°C° 0 mm 4 m/s 767 mmHg 70%
    17:00 +11°C° 0 mm 4 m/s 767 mmHg 74%
    18:00 +10°C° 0 mm 4 m/s 767 mmHg 80%
    19:00 +8°C° 0 mm 4 m/s 767 mmHg 85%
    20:00 +7°C° 0 mm 4 m/s 767 mmHg 91%
    21:00 +7°C° 0 mm 4 m/s 767 mmHg 91%
    22:00 +8°C° 0 mm 3 m/s 767 mmHg 91%
    23:00 +8°C° 0 mm 3 m/s 767 mmHg 91%

    20 Fevereiro, Quarta-feira

    Tempo Temperatura Precipitação Vento Pressão Humidade
    00:00 +7°C° 0 mm 3 m/s 767 mmHg 91%
    01:00 +7°C° 0 mm 2 m/s 767 mmHg 91%
    02:00 +7°C° 0 mm 2 m/s 766 mmHg 90%
    03:00 +7°C° 0 mm 2 m/s 766 mmHg 90%
    04:00 +6°C° 0 mm 2 m/s 766 mmHg 89%
    05:00 +6°C° 0 mm 2 m/s 766 mmHg 89%
    06:00 +6°C° 0 mm 2 m/s 766 mmHg 88%
    07:00 +6°C° 0 mm 2 m/s 766 mmHg 86%
    08:00 +6°C° 0 mm 2 m/s 766 mmHg 85%
    09:00 +8°C° 0 mm 3 m/s 766 mmHg 77%
    10:00 +10°C° 0 mm 3 m/s 766 mmHg 69%
    11:00 +12°C° 0 mm 3 m/s 766 mmHg 61%
    12:00 +13°C° 0 mm 3 m/s 766 mmHg 54%
    13:00 +16°C° 0 mm 2 m/s 765 mmHg 47%
    14:00 +17°C° 0 mm 2 m/s 765 mmHg 41%
    15:00 +16°C° 0 mm 2 m/s 765 mmHg 43%
    16:00 +16°C° 0 mm 2 m/s 765 mmHg 46%
    17:00 +15°C° 0 mm 2 m/s 765 mmHg 48%
    18:00 +14°C° 0 mm 2 m/s 765 mmHg 51%
    19:00 +13°C° 0 mm 2 m/s 766 mmHg 53%
    20:00 +12°C° 0 mm 2 m/s 766 mmHg 56%
    21:00 +10°C° 0 mm 2 m/s 766 mmHg 59%
    22:00 +10°C° 0 mm 3 m/s 767 mmHg 62%
    23:00 +9°C° 0 mm 3 m/s 767 mmHg 64%

    21 Fevereiro, Quinta-feira

    Tempo Temperatura Precipitação Vento Pressão Humidade
    00:00 +9°C° 0 mm 3 m/s 767 mmHg 68%
    01:00 +8°C° 0 mm 3 m/s 767 mmHg 71%
    02:00 +8°C° 0 mm 3 m/s 767 mmHg 75%
    03:00 +7°C° 0 mm 3 m/s 768 mmHg 76%
    04:00 +7°C° 0 mm 3 m/s 768 mmHg 77%
    05:00 +7°C° 0 mm 2 m/s 768 mmHg 79%
    06:00 +7°C° 0 mm 2 m/s 768 mmHg 78%
    07:00 +7°C° 0 mm 2 m/s 768 mmHg 78%
    08:00 +7°C° 0 mm 2 m/s 769 mmHg 77%
    09:00 +10°C° 0 mm 1 m/s 769 mmHg 69%
    10:00 +11°C° 0 mm 1 m/s 769 mmHg 61%
    11:00 +12°C° 0 mm 1 m/s 769 mmHg 53%
    12:00 +13°C° 0 mm 1 m/s 769 mmHg 50%
    13:00 +14°C° 0 mm 1 m/s 768 mmHg 47%
    14:00 +15°C° 0 mm 1 m/s 768 mmHg 43%
    15:00 +14°C° 0 mm 2 m/s 768 mmHg 46%
    16:00 +14°C° 0 mm 2 m/s 767 mmHg 50%
    17:00 +13°C° 0 mm 2 m/s 767 mmHg 53%
    18:00 +12°C° 0 mm 2 m/s 767 mmHg 58%
    19:00 +10°C° 0 mm 2 m/s 768 mmHg 63%
    20:00 +9°C° 0 mm 2 m/s 768 mmHg 67%
    21:00 +9°C° 0 mm 2 m/s 768 mmHg 66%
    22:00 +8°C° 0 mm 2 m/s 768 mmHg 65%
    23:00 +8°C° 0 mm 2 m/s 768 mmHg 64%

    22 Fevereiro, Sexta-feira

    Tempo Temperatura Precipitação Vento Pressão Humidade
    00:00 +8°C° 0 mm 2 m/s 768 mmHg 65%
    01:00 +8°C° 0 mm 2 m/s 768 mmHg 66%
    02:00 +7°C° 0 mm 3 m/s 767 mmHg 67%
    03:00 +7°C° 0 mm 2 m/s 767 mmHg 68%
    04:00 +7°C° 0 mm 2 m/s 767 mmHg 70%
    05:00 +7°C° 0 mm 2 m/s 766 mmHg 71%
    06:00 +7°C° 0 mm 2 m/s 766 mmHg 71%
    07:00 +7°C° 0 mm 2 m/s 766 mmHg 71%
    08:00 +7°C° 0 mm 2 m/s 766 mmHg 70%
    09:00 +8°C° 0 mm 2 m/s 766 mmHg 66%
    10:00 +9°C° 0 mm 2 m/s 766 mmHg 63%
    11:00 +10°C° 0 mm 2 m/s 765 mmHg 59%
    12:00 +11°C° 0.2 mm 1 m/s 765 mmHg 60%
    13:00 +11°C° 0.2 mm 1 m/s 764 mmHg 61%
    14:00 +11°C° 0.2 mm 1 m/s 763 mmHg 62%
    15:00 +11°C° 0.2 mm 1 m/s 763 mmHg 65%
    16:00 +11°C° 0.2 mm 1 m/s 763 mmHg 68%
    17:00 +11°C° 0.2 mm 1 m/s 763 mmHg 70%
    18:00 +10°C° 0.1 mm 1 m/s 762 mmHg 73%
    19:00 +10°C° 0.1 mm 1 m/s 762 mmHg 77%
    20:00 +10°C° 0.1 mm 1 m/s 762 mmHg 80%
    21:00 +9°C° 0 mm 1 m/s 762 mmHg 81%
    22:00 +9°C° 0 mm 1 m/s 762 mmHg 82%
    23:00 +9°C° 0 mm 1 m/s 762 mmHg 83%
    Mostrar mais